Regional Weather Roundup
Issued by NWS

Home | Current Version | Previous Version | Graphics & Text | Print | Product List | Glossary On
Versions: 1 2 3 4 5 6 7 8 9 10 11 12 13 14 15 16 17 18 19 20 21 22 23 24 25 26 27 28 29 30 31 32 33 34 35 36 37 38 39 40 41 42 43 44 45 46 47 48 49 50
202
ASUS45 KABQ 240101
RWRNM
NEW MEXICO REGIONAL WEATHER ROUNDUP
NATIONAL WEATHER SERVICE ALBUQUERQUE NM
700 PM MDT TUE MAY 23 2017

NOTE: "FAIR" MEANS FEW OR NO CLOUDS BELOW 12,000 FEET AGL WITH NO
       SIGNIFICANT WEATHER OR OBSTRUCTIONS TO VISION.

      THIS PRODUCT IS RELEASED AS TWO VERSIONS.  ONE VERSION NEAR
      THE TOP OF THE HOUR CONTAINING PRELIMINARY DATA FROM ALBUQUERQUE
      AND OTHER STATIONS.  A FINAL VERSION WITH ADDITIONAL DATA IS
      ISSUED ABOUT 10 MINUTES AFTER THE HOUR.

NMZ501-503-504-510>518-240200-
NORTHWEST PLATEAU/NORTHCENTRAL MOUNTAINS

CITY           SKY/WX    TMP DP  RH WIND       PRES   REMARKS
FARMINGTON     FAIR      73  35  25 NW18G31   30.04F
LOS ALAMOS     FAIR      66  29  25 CALM      30.11R
SANTA FE       FAIR      72  25  17 SW9       30.04F
TAOS           FAIR      64  21  19 N12       30.11R
ANGEL FIRE     CLOUDY    54  33  44 S13       30.17R

$$
NMZ402-403-502-505>509-240200-
WESTCENTRAL MOUNTAINS/SOUTHWEST MOUNTAINS

CITY           SKY/WX    TMP DP  RH WIND       PRES   REMARKS
GALLUP         FAIR      72  23  16 NW23      30.15S
GRANTS         FAIR      72  19  13 NW16G26   30.12S
SILVER CITY    FAIR      83  18   9 W21       29.98F

$$
NMZ407-409-411-412-240200-
SOUTHERN DESERTS

CITY           SKY/WX    TMP DP  RH WIND       PRES   REMARKS
DEMING         FAIR      89  16   7 W17G29    29.89F
LAS CRUCES     FAIR      80  37  20 SE16G23   29.93F
HOLLOMAN AFB   FAIR      78  37  22 S15       29.97F
ALAMOGORDO     FAIR      77  36  22 S13G21    29.95F
T OR C         FAIR      83  28  13 E3        29.94S

$$
NMZ519>523-240200-
CENTRAL VALLEYS/CENTRAL HIGHLANDS

CITY           SKY/WX    TMP DP  RH WIND       PRES   REMARKS
ALBUQUERQUE    FAIR      75  12   9 W24G32    30.03R
MORIARTY ARPT  FAIR      69  34  27 SE3       30.08S
CLINES CORNERS FAIR      61  32  33 E12       30.11S
BELEN          FAIR      77  13   9 NW22G32   30.00S
SOCORRO        FAIR      79  29  15 S6        29.97S

$$
NMZ524>526-539-540-240200-
SOUTHCENTRAL MOUNTAINS

CITY           SKY/WX    TMP DP  RH WIND       PRES   REMARKS
RUIDOSO        NOT AVBL

$$
NMZ527>531-240200-
NORTHEAST HIGHLANDS/NORTHEAST PLAINS

CITY           SKY/WX    TMP DP  RH WIND       PRES   REMARKS
LAS VEGAS      FAIR      54  36  50 SE12      30.14R
RATON          PTSUNNY   55  30  38 NE12      30.12R
CLAYTON        FAIR      57  33  40 N15       30.08S

$$
NMZ532>537-240200-
EASTCENTRAL PLAINS

CITY           SKY/WX    TMP DP  RH WIND       PRES   REMARKS
SANTA ROSA     FAIR      65  35  33 E9        30.05S
TUCUMCARI      FAIR      65  36  34 NE10      30.04F
CANNON AFB     FAIR      64  34  33 N13       30.07F
CLOVIS AIRPORT FAIR      64  34  32 N15       30.06F

$$
NMZ028-029-538-240200-
SOUTHEAST PLAINS

CITY           SKY/WX    TMP DP  RH WIND       PRES   REMARKS
ROSWELL        FAIR      70  30  22 NE6       30.04F
ARTESIA        FAIR      70  34  26 CALM      30.04S
CARLSBAD       FAIR      70  40  33 NE5       30.02F
HOBBS          FAIR      66  36  32 N10       30.06F


$$




USA.gov is the U.S. government's official web portal to all federal, state and local government web resources and services.